K5JLG-10 Weather Reports


time (UTC)temp
F
wind
direction
speed
knots
gust
knots
rain 1hr
in
rain 24hr
in
rain mn
in
humidity
%
barometer
mb
20260906225916 100 68 2.6 5.2 0.00 0.00 0.00 44 1010.4
20260906224917 101 0.0 0.9 0.00 0.00 0.00 44 1010.6
20260906223917 100 45 3.5 6.1 0.00 0.00 0.00 44 1010.5
20260906222938 101 203 1.7 5.2 0.00 0.00 0.00 45 1010.6
20260906221916 101 68 0.9 1.7 0.00 0.00 0.00 43 1010.6
20260906220937 101 135 0.9 2.6 0.00 0.00 0.00 43 1010.7
20260906215917 101 158 1.7 4.3 0.00 0.00 0.00 42 1010.7
20260906214937 101 90 2.6 5.2 0.00 0.00 0.00 44 1010.8
20260906213917 101 135 2.6 3.5 0.00 0.00 0.00 45 1010.9
20260906212917 101 158 3.5 7.8 0.00 0.00 0.00 43 1011.1
20260906211937 100 68 4.3 7.8 0.00 0.00 0.00 44 1011.3
20260906210916 101 90 2.6 6.1 0.00 0.00 0.00 45 1011.3
20260906205917 101 180 0.9 2.6 0.00 0.00 0.00 46 1011.4
20260906204916 101 68 2.6 6.1 0.00 0.00 0.00 44 1011.6
20260906203916 101 180 2.6 3.5 0.00 0.00 0.00 46 1011.8
20260906202916 100 158 2.6 4.3 0.00 0.00 0.00 47 1011.9
20260906201917 100 135 4.3 7.8 0.00 0.00 0.00 46 1012.0
20260906200917 100 158 2.6 5.2 0.00 0.00 0.00 48 1012.1
20260906195956 99 158 2.6 4.3 0.00 0.00 0.00 49 1012.2
20260906194916 98 68 6.1 10.4 0.00 0.00 0.00 48 1012.2
20260906193916 98 68 2.6 5.2 0.00 0.00 0.00 49 1012.4
20260906192917 99 45 2.6 4.3 0.00 0.00 0.00 48 1012.5
20260906191916 99 158 1.7 3.5 0.00 0.00 0.00 49 1012.6
20260906190916 99 0.0 1.7 0.00 0.00 0.00 50 1012.7
20260906185916 99 180 2.6 4.3 0.00 0.00 0.00 49 1012.9
20260906184936 98 135 2.6 5.2 0.00 0.00 0.00 50 1012.9
20260906183916 98 135 3.5 6.1 0.00 0.00 0.00 50 1013.1
20260906182916 97 158 3.5 5.2 0.00 0.00 0.00 51 1013.1
20260906181916 97 135 4.3 7.0 0.00 0.00 0.00 52 1013.3
20260906180916 97 158 6.1 9.6 0.00 0.00 0.00 52 1013.4
20260906175916 96 180 6.1 9.6 0.00 0.00 0.00 53 1013.4
20260906174915 96 180 3.5 7.0 0.00 0.00 0.00 54 1013.7
20260906173916 96 158 3.5 5.2 0.00 0.00 0.00 54 1013.8
20260906172916 96 203 1.7 2.6 0.00 0.00 0.00 57 1014.1
20260906171916 96 135 2.6 3.5 0.00 0.00 0.00 57 1014.3
20260906170916 94 180 3.5 4.3 0.00 0.00 0.00 57 1014.2
20260906165916 94 90 0.9 2.6 0.00 0.00 0.00 59 1014.3
20260906164916 94 158 3.5 7.0 0.00 0.00 0.00 60 1014.5
20260906163915 94 180 3.5 6.1 0.00 0.00 0.00 61 1014.5
20260906162916 93 68 2.6 4.3 0.00 0.00 0.00 62 1014.4
20260906161916 93 180 0.9 2.6 0.00 0.00 0.00 61 1014.6
20260906160916 93 68 2.6 4.3 0.00 0.00 0.00 62 1014.5
20260906155916 92 180 1.7 2.6 0.00 0.00 0.00 64 1014.6
20260906154916 92 135 2.6 4.3 0.00 0.00 0.00 65 1014.6
20260906153917 91 68 0.9 1.7 0.00 0.00 0.00 68 1014.5
20260906152916 91 158 0.9 0.9 0.00 0.00 0.00 68 1014.2
20260906151915 90 0.0 0.9 0.00 0.00 0.00 69 1014.2
20260906150916 90 68 1.7 3.5 0.00 0.00 0.00 69 1014.1
20260906145915 89 68 1.7 2.6 0.00 0.00 0.00 71 1014.1
20260906144915 89 0.0 1.7 0.00 0.00 0.00 70 1014.1
20260906143936 88 0.0 2.6 0.00 0.00 0.00 73 1014.0
20260906142916 88 68 0.9 2.6 0.00 0.00 0.00 73 1014.0
20260906141915 88 68 0.9 1.7 0.00 0.00 0.00 73 1014.1
20260906140915 87 0.0 0.0 0.00 0.00 0.00 74 1014.1
20260906135936 86 0.0 0.0 0.00 0.00 0.00 75 1014.2
20260906134915 86 0.0 0.9 0.00 0.00 0.00 76 1014.1
20260906133915 86 0.0 0.0 0.00 0.00 0.00 77 1014.2
20260906132915 85 180 0.9 1.7 0.00 0.00 0.00 78 1014.0
20260906131915 83 0.0 0.0 0.00 0.00 0.00 81 1014.0
20260906130915 82 158 0.9 1.7 0.00 0.00 0.00 82 1014.0
20260906125937 81 0.0 0.9 0.00 0.00 0.00 83 1013.8
20260906124917 81 0.0 0.0 0.00 0.00 0.00 84 1013.9
20260906123918 80 0.0 0.0 0.00 0.00 0.00 85 1013.8
20260906122935 80 0.0 0.0 0.00 0.00 0.00 85 1013.7
20260906121918 80 0.0 0.0 0.00 0.00 0.00 85 1013.6
20260906120917 80 0.0 0.0 0.00 0.00 0.00 84 1013.5
20260906115917 80 0.0 0.0 0.00 0.00 0.00 84 1013.5
20260906114917 80 0.0 0.0 0.00 0.00 0.00 84 1013.4
20260906113917 81 0.0 0.0 0.00 0.00 0.00 83 1013.3
20260906112917 81 158 0.9 1.7 0.00 0.00 0.00 82 1013.2
20260906111917 81 0.0 0.9 0.00 0.00 0.00 82 1013.1
20260906110917 81 158 0.9 1.7 0.00 0.00 0.00 83 1013.2
20260906105917 81 0.0 0.0 0.00 0.00 0.00 82 1013.1
20260906104917 81 0.0 0.0 0.00 0.00 0.00 82 1013.0
20260906103937 81 0.0 0.0 0.00 0.00 0.00 83 1012.9
20260906102917 81 0.0 0.0 0.00 0.00 0.00 83 1012.9
20260906101917 81 0.0 0.0 0.00 0.00 0.00 81 1012.9
20260906100918 82 0.0 0.0 0.00 0.00 0.00 80 1012.8
20260906095917 82 0.0 0.0 0.00 0.00 0.00 80 1012.7
20260906094917 82 0.0 0.0 0.00 0.00 0.00 80 1012.6
20260906093957 83 0.0 0.0 0.00 0.00 0.00 79 1012.4
20260906092917 83 0.0 0.0 0.00 0.00 0.00 79 1012.4
20260906091917 83 0.0 0.0 0.00 0.00 0.00 79 1012.4
20260906090917 83 158 0.9 1.7 0.00 0.00 0.00 79 1012.2
20260906085917 83 158 0.9 2.6 0.00 0.00 0.00 79 1012.2
20260906084917 83 180 0.9 2.6 0.00 0.00 0.00 78 1012.2
20260906083937 84 180 2.6 4.3 0.00 0.00 0.00 78 1012.4
20260906082917 84 180 1.7 3.5 0.00 0.00 0.00 78 1012.4
20260906081917 84 135 0.9 1.7 0.00 0.00 0.00 77 1012.1
20260906080917 84 180 1.7 2.6 0.00 0.00 0.00 77 1012.1
20260906075917 84 158 1.7 2.6 0.00 0.00 0.00 77 1012.3
20260906074917 84 158 0.9 0.9 0.00 0.00 0.00 77 1012.4
20260906073918 85 0.0 0.0 0.00 0.00 0.00 76 1012.3
20260906072917 85 0.0 0.0 0.00 0.00 0.00 76 1012.4
20260906071937 85 158 0.9 1.7 0.00 0.00 0.00 75 1012.5
20260906070916 85 158 2.6 3.5 0.00 0.00 0.00 75 1012.6
20260906065917 85 180 0.9 1.7 0.00 0.00 0.00 74 1012.6
20260906064916 86 158 2.6 3.5 0.00 0.00 0.00 73 1012.6
20260906063916 86 0.0 0.9 0.00 0.00 0.00 72 1012.5
20260906062916 86 0.0 1.7 0.00 0.00 0.00 71 1012.5
20260906061917 86 158 1.7 3.5 0.00 0.00 0.00 71 1012.6
20260906060917 86 0.0 0.9 0.00 0.00 0.00 70 1012.6
20260906055937 86 158 0.9 2.6 0.00 0.00 0.00 70 1012.6
20260906054916 87 180 1.7 2.6 0.00 0.00 0.00 70 1012.6
20260906053916 87 158 0.9 2.6 0.00 0.00 0.00 70 1012.4
20260906052916 87 0.0 1.7 0.00 0.00 0.00 70 1012.5
20260906051916 87 0.0 1.7 0.00 0.00 0.00 70 1012.6
20260906050937 87 0.0 0.0 0.00 0.00 0.00 69 1012.6
20260906045917 87 135 1.7 2.6 0.00 0.00 0.00 69 1012.6
20260906044917 87 158 1.7 2.6 0.00 0.00 0.00 69 1012.7
20260906043917 88 158 1.7 2.6 0.00 0.00 0.00 68 1012.5
20260906042936 88 135 1.7 2.6 0.00 0.00 0.00 68 1012.5
20260906041917 88 158 1.7 3.5 0.00 0.00 0.00 67 1012.4
20260906040916 88 158 1.7 3.5 0.00 0.00 0.00 67 1012.4
20260906035917 88 158 1.7 2.6 0.00 0.00 0.00 66 1012.3
20260906034917 88 135 1.7 3.5 0.00 0.00 0.00 65 1012.5
20260906033917 89 158 2.6 5.2 0.00 0.00 0.00 65 1012.4
20260906032917 89 158 1.7 2.6 0.00 0.00 0.00 64 1012.4
20260906031916 89 158 2.6 5.2 0.00 0.00 0.00 64 1012.4
20260906030916 89 180 3.5 5.2 0.00 0.00 0.00 63 1012.6
20260906025936 90 158 2.6 4.3 0.00 0.00 0.00 62 1012.5
20260906024917 90 180 4.3 7.0 0.00 0.00 0.00 62 1012.4
20260906023916 90 180 3.5 7.0 0.00 0.00 0.00 62 1012.3
20260906022916 90 158 3.5 6.1 0.00 0.00 0.00 61 1012.1
20260906021917 90 158 1.7 1.7 0.00 0.00 0.00 61 1011.9
20260906020936 90 180 2.6 4.3 0.00 0.00 0.00 61 1011.7
20260906015917 91 158 1.7 2.6 0.00 0.00 0.00 61 1011.7
20260906014916 91 158 6.1 9.6 0.00 0.00 0.00 60 1011.5
20260906013916 92 158 6.1 7.8 0.00 0.00 0.00 59 1011.3
20260906012916 93 180 5.2 8.7 0.00 0.00 0.00 57 1011.1
20260906011916 94 158 5.2 9.6 0.00 0.00 0.00 55 1010.8
20260906010916 96 158 1.7 5.2 0.00 0.00 0.00 49 1010.6
20260906005916 96 68 1.7 3.5 0.00 0.00 0.00 49 1010.4
20260906004917 97 0.0 0.9 0.00 0.00 0.00 48 1010.4
20260906003916 97 135 0.9 1.7 0.00 0.00 0.00 47 1010.3
20260906002956 98 158 2.6 5.2 0.00 0.00 0.00 46 1010.4
20260906001916 99 158 1.7 3.5 0.00 0.00 0.00 45 1010.4
20260906000916 99 135 0.9 1.7 0.00 0.00 0.00 45 1010.4
20260905235916 100 158 4.3 8.7 0.00 0.00 0.00 44 1010.3
20260905234916 100 180 0.9 1.7 0.00 0.00 0.00 44 1010.2
20260905233916 100 0.0 0.9 0.00 0.00 0.00 43 1010.1
20260905232916 100 158 2.6 5.2 0.00 0.00 0.00 44 1010.2
20260905231916 100 0.0 0.0 0.00 0.00 0.00 44 1010.2
20260905230936 100 68 1.7 3.5 0.00 0.00 0.00 43 1010.2